| time (UTC) | temp F | wind direction | speed MPH | gust MPH | rain 1hr in | rain 24hr in | rain mn in | humidity % | barometer mb |
| 20260502205915 | 60 | 308 | 2.0 | 3.0 | 0.00 | 0.01 | 0.01 | 49 | 1020.9 |
| 20260502204930 | 59 | 292 | 2.0 | 3.0 | 0.00 | 0.01 | 0.01 | 49 | 1020.9 |
| 20260502204417 | 59 | 310 | 3.0 | 3.0 | 0.00 | 0.01 | 0.01 | 49 | 1020.9 |
| 20260502203915 | 59 | 307 | 2.0 | 5.0 | 0.00 | 0.01 | 0.01 | 49 | 1021.0 |
| 20260502203424 | 59 | 303 | 1.0 | 3.0 | 0.00 | 0.01 | 0.01 | 49 | 1021.0 |
| 20260502202922 | 59 | 318 | 2.0 | 3.0 | 0.00 | 0.01 | 0.01 | 49 | 1021.0 |
| 20260502201916 | 59 | 312 | 2.0 | 3.0 | 0.00 | 0.01 | 0.01 | 48 | 1021.0 |
| 20260502201415 | 60 | 315 | 2.0 | 3.0 | 0.00 | 0.01 | 0.01 | 47 | 1021.0 |
| 20260502200914 | 60 | 302 | 2.0 | 3.0 | 0.00 | 0.01 | 0.01 | 47 | 1021.0 |
| 20260502200416 | 60 | 321 | 2.0 | 3.0 | 0.00 | 0.01 | 0.01 | 47 | 1021.0 |
| 20260502195915 | 60 | 329 | 2.0 | 3.0 | 0.00 | 0.01 | 0.01 | 46 | 1021.0 |
| 20260502195417 | 60 | 298 | 1.0 | 3.0 | 0.00 | 0.01 | 0.01 | 45 | 1021.0 |
| 20260502194916 | 60 | 285 | 2.0 | 3.0 | 0.00 | 0.01 | 0.01 | 44 | 1021.0 |
| 20260502194419 | 60 | 317 | 2.0 | 5.0 | 0.00 | 0.01 | 0.01 | 44 | 1021.0 |
| 20260502192918 | 60 | 337 | 2.0 | 3.0 | 0.00 | 0.01 | 0.01 | 43 | 1021.0 |
| 20260502192415 | 60 | 297 | 2.0 | 5.0 | 0.00 | 0.01 | 0.01 | 42 | 1020.9 |
| 20260502191915 | 60 | 305 | 2.0 | 3.0 | 0.00 | 0.01 | 0.01 | 42 | 1020.9 |
| 20260502191415 | 60 | 310 | 2.0 | 3.0 | 0.00 | 0.01 | 0.01 | 43 | 1020.9 |
| 20260502190915 | 60 | 308 | 2.0 | 3.0 | 0.00 | 0.01 | 0.01 | 42 | 1020.7 |
| 20260502190416 | 61 | 300 | 2.0 | 3.0 | 0.00 | 0.01 | 0.01 | 41 | 1020.7 |
| 20260502185921 | 61 | 312 | 2.0 | 3.0 | 0.00 | 0.01 | 0.01 | 40 | 1020.6 |
| 20260502185416 | 62 | 312 | 3.0 | 3.0 | 0.00 | 0.01 | 0.01 | 39 | 1020.6 |
| 20260502184916 | 62 | 328 | 2.0 | 3.0 | 0.00 | 0.01 | 0.01 | 39 | 1020.5 |
| 20260502184418 | 63 | 284 | 2.0 | 3.0 | 0.00 | 0.01 | 0.01 | 38 | 1020.5 |
| 20260502183916 | 63 | 270 | 1.0 | 3.0 | 0.00 | 0.01 | 0.01 | 37 | 1020.5 |
| 20260502183415 | 63 | 290 | 1.0 | 6.0 | 0.00 | 0.01 | 0.01 | 37 | 1020.5 |
| 20260502182918 | 63 | 304 | 1.0 | 6.0 | 0.00 | 0.01 | 0.01 | 37 | 1020.4 |
| 20260502182423 | 63 | 310 | 2.0 | 3.0 | 0.00 | 0.01 | 0.01 | 36 | 1020.4 |
| 20260502181415 | 64 | 299 | 3.0 | 5.0 | 0.00 | 0.01 | 0.01 | 36 | 1020.3 |
| 20260502180915 | 64 | 284 | 2.0 | 3.0 | 0.00 | 0.01 | 0.01 | 35 | 1020.3 |
| 20260502180416 | 64 | 354 | 1.0 | 3.0 | 0.00 | 0.01 | 0.01 | 35 | 1020.2 |
| 20260502170416 | 66 | 272 | 1.0 | 3.0 | 0.00 | 0.01 | 0.01 | 30 | 1019.8 |
| 20260502163915 | 66 | 278 | 1.0 | 5.0 | 0.00 | 0.01 | 0.01 | 29 | 1019.9 |
| 20260502163416 | 66 | 4 | 1.0 | 5.0 | 0.00 | 0.01 | 0.01 | 30 | 1019.9 |
| 20260502162918 | 66 | 322 | 2.0 | 3.0 | 0.00 | 0.01 | 0.01 | 28 | 1019.9 |
| 20260502162416 | 66 | 275 | 2.0 | 7.0 | 0.00 | 0.01 | 0.01 | 28 | 1019.9 |
| 20260502161415 | 67 | 307 | 2.0 | 3.0 | 0.00 | 0.01 | 0.01 | 28 | 1019.8 |
| 20260502160915 | 67 | 293 | 2.0 | 5.0 | 0.00 | 0.01 | 0.01 | 27 | 1019.8 |
| 20260502160415 | 67 | 281 | 1.0 | 3.0 | 0.00 | 0.01 | 0.01 | 28 | 1019.8 |
| 20260502151915 | 67 | 321 | 2.0 | 3.0 | 0.00 | 0.01 | 0.01 | 26 | 1020.1 |
| 20260502151414 | 67 | 320 | 2.0 | 5.0 | 0.00 | 0.01 | 0.01 | 28 | 1020.0 |
| 20260502150915 | 67 | 314 | 2.0 | 5.0 | 0.00 | 0.01 | 0.01 | 27 | 1020.1 |
| 20260502150415 | 67 | 315 | 2.0 | 3.0 | 0.00 | 0.01 | 0.01 | 27 | 1020.2 |
| 20260502123415 | 66 | 341 | 2.0 | 3.0 | 0.00 | 0.01 | 0.01 | 32 | 1020.5 |
| 20260502122919 | 66 | 0 | 2.0 | 3.0 | 0.00 | 0.01 | 0.01 | 33 | 1020.6 |
| 20260502122417 | 66 | 290 | 2.0 | 5.0 | 0.00 | 0.01 | 0.01 | 33 | 1020.5 |
| 20260502121915 | 66 | 5 | 2.0 | 8.0 | 0.00 | 0.01 | 0.01 | 35 | 1020.6 |
| 20260502120914 | 66 | 54 | 2.0 | 3.0 | 0.00 | 0.01 | 0.01 | 36 | 1020.6 |
| 20260502115917 | 65 | 297 | 2.0 | 5.0 | 0.00 | 0.01 | 0.01 | 36 | 1020.7 |
| 20260502114914 | 66 | 313 | 1.0 | 3.0 | 0.00 | 0.01 | 0.01 | 36 | 1020.8 |
| 20260502114416 | 65 | 29 | 3.0 | 5.0 | 0.00 | 0.01 | 0.01 | 36 | 1020.8 |
| 20260502112915 | 65 | 73 | 3.0 | 5.0 | 0.00 | 0.01 | 0.01 | 38 | 1020.8 |
| 20260502111414 | 65 | 35 | 3.0 | 6.0 | 0.00 | 0.01 | 0.01 | 37 | 1021.1 |
| 20260502110914 | 65 | 26 | 3.0 | 8.0 | 0.00 | 0.01 | 0.01 | 36 | 1021.1 |
| 20260502110414 | 65 | 330 | 2.0 | 8.0 | 0.00 | 0.01 | 0.01 | 35 | 1021.1 |
| 20260502105915 | 65 | 46 | 2.0 | 5.0 | 0.00 | 0.01 | 0.01 | 36 | 1021.1 |
| 20260502105416 | 65 | 26 | 2.0 | 3.0 | 0.00 | 0.01 | 0.01 | 35 | 1021.1 |
| 20260502104418 | 65 | 327 | 3.0 | 8.0 | 0.00 | 0.01 | 0.01 | 35 | 1021.1 |
| 20260502103915 | 65 | 14 | 2.0 | 3.0 | 0.00 | 0.01 | 0.01 | 33 | 1021.2 |
| 20260502103415 | 65 | 89 | 2.0 | 6.0 | 0.00 | 0.01 | 0.01 | 33 | 1021.1 |
| 20260502102915 | 65 | 25 | 2.0 | 3.0 | 0.00 | 0.01 | 0.01 | 33 | 1021.2 |
| 20260502102415 | 65 | 24 | 2.0 | 3.0 | 0.00 | 0.01 | 0.01 | 33 | 1021.2 |
| 20260502101415 | 65 | 2 | 2.0 | 6.0 | 0.00 | 0.01 | 0.01 | 34 | 1021.3 |
| 20260502100915 | 65 | 46 | 2.0 | 5.0 | 0.00 | 0.01 | 0.01 | 33 | 1021.3 |
| 20260502091416 | 64 | 23 | 2.0 | 12.0 | 0.00 | 0.01 | 0.01 | 35 | 1021.3 |
| 20260502090916 | 64 | 37 | 3.0 | 5.0 | 0.00 | 0.01 | 0.01 | 35 | 1021.3 |
| 20260502090415 | 64 | 45 | 2.0 | 3.0 | 0.00 | 0.01 | 0.01 | 36 | 1021.3 |
| 20260502071415 | 62 | 22 | 2.0 | 6.0 | 0.00 | 0.01 | 0.01 | 39 | 1021.3 |
| 20260502070915 | 62 | 69 | 2.0 | 5.0 | 0.00 | 0.01 | 0.01 | 38 | 1021.2 |
| 20260502070415 | 61 | 6 | 3.0 | 6.0 | 0.00 | 0.01 | 0.01 | 38 | 1021.2 |
| 20260502065914 | 61 | 282 | 2.0 | 5.0 | 0.00 | 0.01 | 0.01 | 41 | 1021.3 |
| 20260502064915 | 59 | 334 | 2.0 | 5.0 | 0.00 | 0.01 | 0.01 | 48 | 1021.3 |
| 20260502064424 | 59 | 351 | 2.0 | 3.0 | 0.00 | 0.01 | 0.01 | 52 | 1021.4 |
| 20260502063414 | 58 | 265 | 2.0 | 3.0 | 0.00 | 0.01 | 0.01 | 56 | 1021.3 |
| 20260502062916 | 57 | 273 | 2.0 | 3.0 | 0.00 | 0.01 | 0.01 | 57 | 1021.3 |
| 20260502061917 | 57 | 265 | 2.0 | 3.0 | 0.00 | 0.01 | 0.01 | 60 | 1021.2 |
| 20260502061414 | 56 | 269 | 3.0 | 6.0 | 0.00 | 0.01 | 0.01 | 61 | 1021.2 |
| 20260502060913 | 57 | 259 | 2.0 | 3.0 | 0.00 | 0.01 | 0.01 | 61 | 1021.2 |
| 20260502060415 | 56 | 284 | 2.0 | 3.0 | 0.00 | 0.01 | 0.01 | 62 | 1021.3 |
| 20260502055913 | 56 | 278 | 2.0 | 3.0 | 0.00 | 0.01 | 0.01 | 60 | 1021.2 |
| 20260502055416 | 56 | 270 | 2.0 | 3.0 | 0.00 | 0.01 | 0.01 | 60 | 1021.2 |
| 20260502054414 | 56 | 271 | 3.0 | 3.0 | 0.00 | 0.01 | 0.01 | 61 | 1021.2 |
| 20260502053914 | 56 | 252 | 2.0 | 3.0 | 0.00 | 0.01 | 0.01 | 61 | 1021.2 |
| 20260502053413 | 56 | 253 | 2.0 | 3.0 | 0.00 | 0.01 | 0.01 | 60 | 1021.2 |
| 20260502052918 | 56 | 259 | 2.0 | 3.0 | 0.00 | 0.01 | 0.01 | 58 | 1021.2 |
| 20260502052417 | 56 | 264 | 2.0 | 3.0 | 0.00 | 0.01 | 0.01 | 59 | 1021.2 |
| 20260502051923 | 55 | 299 | 2.0 | 3.0 | 0.00 | 0.01 | 0.01 | 60 | 1021.2 |
| 20260502051414 | 55 | 295 | 2.0 | 3.0 | 0.00 | 0.01 | 0.01 | 63 | 1021.3 |
| 20260502050914 | 55 | 276 | 2.0 | 3.0 | 0.00 | 0.01 | 0.01 | 62 | 1021.3 |
| 20260502050414 | 55 | 271 | 2.0 | 3.0 | 0.00 | 0.01 | 0.01 | 62 | 1021.3 |
| 20260502045914 | 55 | 299 | 2.0 | 3.0 | 0.00 | 0.01 | 0.01 | 60 | 1021.3 |
| 20260502045416 | 56 | 268 | 2.0 | 3.0 | 0.00 | 0.01 | 0.01 | 56 | 1021.2 |
| 20260502044915 | 56 | 291 | 1.0 | 3.0 | 0.00 | 0.01 | 0.01 | 57 | 1021.2 |
| 20260502044415 | 56 | 278 | 2.0 | 3.0 | 0.00 | 0.01 | 0.01 | 56 | 1021.2 |
| 20260502043914 | 56 | 306 | 2.0 | 3.0 | 0.00 | 0.01 | 0.01 | 54 | 1021.1 |
| 20260502042917 | 56 | 263 | 2.0 | 3.0 | 0.00 | 0.01 | 0.01 | 51 | 1021.0 |
| 20260502042418 | 56 | 279 | 2.0 | 3.0 | 0.00 | 0.01 | 0.01 | 51 | 1020.9 |
| 20260502041918 | 56 | 280 | 1.0 | 3.0 | 0.00 | 0.01 | 0.01 | 51 | 1020.9 |
| 20260502040415 | 56 | 308 | 2.0 | 3.0 | 0.00 | 0.01 | 0.01 | 51 | 1020.8 |
| 20260502035915 | 56 | 291 | 2.0 | 3.0 | 0.00 | 0.01 | 0.01 | 51 | 1020.8 |
| 20260502035414 | 56 | 277 | 2.0 | 3.0 | 0.00 | 0.01 | 0.01 | 50 | 1020.8 |
| 20260502034915 | 56 | 275 | 1.0 | 3.0 | 0.00 | 0.01 | 0.01 | 50 | 1020.7 |
| 20260502034417 | 56 | 285 | 1.0 | 3.0 | 0.00 | 0.01 | 0.01 | 51 | 1020.7 |
| 20260502033915 | 56 | 263 | 2.0 | 3.0 | 0.00 | 0.01 | 0.01 | 49 | 1020.6 |
| 20260502033418 | 56 | 277 | 1.0 | 3.0 | 0.00 | 0.01 | 0.01 | 49 | 1020.7 |
| 20260502032919 | 56 | 285 | 1.0 | 2.0 | 0.00 | 0.01 | 0.01 | 49 | 1020.7 |
| 20260502032419 | 56 | 260 | 1.0 | 3.0 | 0.00 | 0.01 | 0.01 | 49 | 1020.6 |
| 20260502031914 | 56 | 352 | 1.0 | 3.0 | 0.00 | 0.01 | 0.01 | 49 | 1020.6 |
| 20260502031415 | 55 | 295 | 1.0 | 3.0 | 0.00 | 0.01 | 0.01 | 49 | 1020.6 |
| 20260502030414 | 56 | 301 | 1.0 | 3.0 | 0.00 | 0.01 | 0.01 | 49 | 1020.6 |
| 20260502025416 | 55 | 293 | 2.0 | 3.0 | 0.00 | 0.01 | 0.01 | 49 | 1020.6 |
| 20260502024915 | 55 | 301 | 1.0 | 3.0 | 0.00 | 0.01 | 0.01 | 48 | 1020.6 |
| 20260502024414 | 56 | 279 | 0.0 | 1.0 | 0.00 | 0.01 | 0.01 | 48 | 1020.6 |
| 20260502023914 | 56 | 283 | 1.0 | 3.0 | 0.00 | 0.01 | 0.01 | 47 | 1020.6 |
| 20260502023415 | 56 | 292 | 2.0 | 3.0 | 0.00 | 0.01 | 0.01 | 48 | 1020.6 |
| 20260502022414 | 55 | 311 | 1.0 | 3.0 | 0.00 | 0.01 | 0.01 | 49 | 1020.6 |
| 20260502021913 | 55 | 333 | 1.0 | 3.0 | 0.00 | 0.01 | 0.01 | 50 | 1020.6 |
| 20260502021413 | 55 | 301 | 1.0 | 3.0 | 0.00 | 0.01 | 0.01 | 50 | 1020.6 |
| 20260502020914 | 55 | 287 | 1.0 | 3.0 | 0.00 | 0.01 | 0.01 | 50 | 1020.6 |
| 20260502020413 | 55 | 311 | 1.0 | 3.0 | 0.00 | 0.01 | 0.01 | 52 | 1020.6 |
| 20260502015914 | 55 | 308 | 2.0 | 3.0 | 0.00 | 0.01 | 0.01 | 52 | 1020.5 |
| 20260502015413 | 55 | 327 | 2.0 | 3.0 | 0.00 | 0.01 | 0.01 | 53 | 1020.5 |
| 20260502014914 | 55 | 14 | 1.0 | 3.0 | 0.00 | 0.01 | 0.01 | 53 | 1020.6 |
| 20260502014416 | 55 | 26 | 1.0 | 3.0 | 0.00 | 0.01 | 0.01 | 54 | 1020.6 |
| 20260502013914 | 55 | 276 | 1.0 | 3.0 | 0.00 | 0.01 | 0.01 | 55 | 1020.6 |
| 20260502013414 | 55 | 85 | 1.0 | 3.0 | 0.00 | 0.01 | 0.01 | 56 | 1020.6 |
| 20260502012914 | 55 | 342 | 2.0 | 3.0 | 0.00 | 0.01 | 0.01 | 57 | 1020.6 |
| 20260502012414 | 55 | 260 | 1.0 | 3.0 | 0.00 | 0.01 | 0.01 | 58 | 1020.6 |
| 20260502011913 | 55 | 332 | 2.0 | 3.0 | 0.00 | 0.01 | 0.01 | 58 | 1020.6 |
| 20260502011413 | 55 | 328 | 1.0 | 3.0 | 0.00 | 0.01 | 0.01 | 58 | 1020.6 |
| 20260502010915 | 55 | 45 | 1.0 | 3.0 | 0.00 | 0.01 | 0.01 | 59 | 1020.6 |
| 20260502010414 | 55 | 2 | 1.0 | 3.0 | 0.00 | 0.01 | 0.01 | 59 | 1020.6 |
| 20260502005914 | 55 | 336 | 2.0 | 3.0 | 0.00 | 0.01 | 0.01 | 59 | 1020.6 |
| 20260502005415 | 55 | 296 | 1.0 | 5.0 | 0.00 | 0.01 | 0.01 | 58 | 1020.6 |
| 20260502004914 | 55 | 352 | 1.0 | 3.0 | 0.00 | 0.01 | 0.01 | 59 | 1020.6 |
| 20260502004414 | 55 | 341 | 2.0 | 3.0 | 0.00 | 0.01 | 0.01 | 60 | 1020.6 |
| 20260502003414 | 54 | 276 | 1.0 | 3.0 | 0.00 | 0.01 | 0.01 | 64 | 1020.6 |
| 20260502002915 | 55 | 311 | 2.0 | 3.0 | 0.00 | 0.01 | 0.01 | 65 | 1020.6 |
| 20260502001415 | 54 | 28 | 1.0 | 3.0 | 0.00 | 0.01 | 0.01 | 65 | 1020.7 |
| 20260502000915 | 55 | 330 | 2.0 | 3.0 | 0.00 | 0.01 | 0.01 | 65 | 1020.8 |
| 20260502000416 | 54 | 291 | 2.0 | 3.0 | 0.00 | 0.01 | 0.01 | 65 | 1020.7 |
| 20260501235913 | 54 | 323 | 2.0 | 3.0 | 0.00 | 0.01 | 0.01 | 66 | 1020.8 |
| 20260501235414 | 54 | 312 | 2.0 | 3.0 | 0.00 | 0.01 | 0.01 | 67 | 1020.9 |
| 20260501234914 | 54 | 332 | 2.0 | 3.0 | 0.00 | 0.01 | 0.01 | 67 | 1020.8 |
| 20260501234414 | 54 | 268 | 2.0 | 3.0 | 0.00 | 0.01 | 0.01 | 68 | 1020.8 |
| 20260501232914 | 54 | 263 | 1.0 | 3.0 | 0.00 | 0.01 | 0.01 | 75 | 1020.9 |
| 20260501232414 | 54 | 262 | 1.0 | 2.0 | 0.00 | 0.01 | 0.01 | 75 | 1020.9 |
| 20260501231921 | 53 | 266 | 1.0 | 2.0 | 0.00 | 0.01 | 0.01 | 75 | 1021.0 |
| 20260501231415 | 53 | 257 | 1.0 | 3.0 | 0.01 | 0.01 | 0.01 | 75 | 1021.0 |
| 20260501230915 | 53 | 265 | 1.0 | 3.0 | 0.01 | 0.01 | 0.01 | 75 | 1021.0 |
| 20260501230415 | 53 | 271 | 2.0 | 3.0 | 0.01 | 0.01 | 0.01 | 76 | 1021.0 |
| 20260501225913 | 53 | 275 | 1.0 | 3.0 | 0.01 | 0.01 | 0.01 | 76 | 1021.0 |
| 20260501225414 | 53 | 262 | 2.0 | 2.0 | 0.01 | 0.01 | 0.01 | 76 | 1021.0 |
| 20260501224420 | 52 | 283 | 1.0 | 3.0 | 0.01 | 0.01 | 0.01 | 78 | 1021.1 |
| 20260501223914 | 52 | 130 | 0.0 | 1.0 | 0.01 | 0.01 | 0.01 | 78 | 1021.2 |
| 20260501222914 | 52 | 39 | 0.0 | 2.0 | 0.01 | 0.01 | 0.01 | 77 | 1021.5 |
| 20260501222413 | 52 | 87 | 2.0 | 3.0 | 0.01 | 0.01 | 0.01 | 76 | 1021.4 |
| 20260501221917 | 53 | 98 | 1.0 | 3.0 | 0.01 | 0.01 | 0.01 | 74 | 1021.4 |
| 20260501220414 | 55 | 54 | 3.0 | 5.0 | 0.00 | 0.00 | 0.00 | 66 | 1021.5 |
| 20260501215914 | 56 | 72 | 3.0 | 6.0 | 0.00 | 0.00 | 0.00 | 69 | 1021.3 |
| 20260501215414 | 56 | 330 | 2.0 | 3.0 | 0.00 | 0.00 | 0.00 | 68 | 1020.8 |
| 20260501214413 | 56 | 295 | 2.0 | 3.0 | 0.00 | 0.00 | 0.00 | 67 | 1020.8 |
| 20260501213914 | 56 | 294 | 3.0 | 3.0 | 0.00 | 0.00 | 0.00 | 67 | 1020.8 |
| 20260501212913 | 56 | 300 | 3.0 | 3.0 | 0.00 | 0.00 | 0.00 | 66 | 1020.7 |
| 20260501212414 | 56 | 312 | 3.0 | 5.0 | 0.00 | 0.00 | 0.00 | 65 | 1020.8 |
| 20260501211917 | 56 | 303 | 2.0 | 3.0 | 0.00 | 0.00 | 0.00 | 65 | 1020.8 |
| 20260501211414 | 56 | 317 | 2.0 | 5.0 | 0.00 | 0.00 | 0.00 | 64 | 1020.8 |
| 20260501210913 | 56 | 295 | 2.0 | 5.0 | 0.00 | 0.00 | 0.00 | 64 | 1020.8 |
| 20260501210414 | 56 | 310 | 3.0 | 3.0 | 0.00 | 0.00 | 0.00 | 63 | 1020.9 |